DIRECTV 15

Last updated on Thu Oct 30 2025 00:02:50 GMT+0000 (Coordinated Universal Time)

1 40663U 15026A 25302.49538595 -.00000092 00000+0 00000+0 0 9993 2 40663 0.0450 75.1857 0000361 42.5028 355.8935 1.00268445 38159
UTC large
Height (km)
Speed (km/s)
/
Latitude / Longitude
Inclination (degrees)
Orbital Period (minutes)
Azimuth
Elevation
Range (km)
Doppler Factor

Next 0 passes for location: London (51.5072 / 0.1276)

Sorry there are no passes over London.